When you browse on this site, cookies collect data to enhance your experience and personalize the content and advertising you see.
Visit our Privacy Policy to learn more. By continuing to use the site, you agree to this use of cookies and data.
  • en Suisse
  • Liste des pays
  • À 7 jours
  • Température de l'eau
  • Carte satellitaire
  • Carte météo
  • Widgets météo
  • user-avatar
    Se connecter

    Météo par heure à Lututow

    Ce jour, 26 Avril, Vendredi

    Heure Température Précipitation Vent Pression Humidité
    00:00 +16°C° 0 mm 2 m/s 744 mmHg 81%
    01:00 +16°C° 0 mm 2 m/s 744 mmHg 81%
    02:00 +14°C° 0 mm 3 m/s 743 mmHg 81%
    03:00 +14°C° 0 mm 3 m/s 743 mmHg 81%
    04:00 +13°C° 0 mm 3 m/s 743 mmHg 82%
    05:00 +16°C° 0 mm 3 m/s 743 mmHg 77%
    06:00 +17°C° 0 mm 3 m/s 743 mmHg 73%
    07:00 +18°C° 0 mm 4 m/s 742 mmHg 69%
    08:00 +20°C° 0 mm 4 m/s 742 mmHg 63%
    09:00 +22°C° 0 mm 4 m/s 742 mmHg 56%
    10:00 +23°C° 0 mm 4 m/s 742 mmHg 50%
    11:00 +25°C° 0 mm 4 m/s 742 mmHg 47%
    12:00 +26°C° 0 mm 4 m/s 741 mmHg 44%
    13:00 +27°C° 0 mm 4 m/s 741 mmHg 41%
    14:00 +27°C° 0 mm 4 m/s 741 mmHg 42%
    15:00 +27°C° 0 mm 3 m/s 741 mmHg 43%
    16:00 +27°C° 0 mm 3 m/s 740 mmHg 44%
    17:00 +25°C° 0 mm 3 m/s 740 mmHg 49%
    18:00 +24°C° 0 mm 2 m/s 740 mmHg 55%
    19:00 +21°C° 0 mm 2 m/s 740 mmHg 61%
    20:00 +20°C° 0 mm 2 m/s 740 mmHg 63%
    21:00 +19°C° 0 mm 3 m/s 740 mmHg 65%
    22:00 +18°C° 0 mm 3 m/s 740 mmHg 68%
    23:00 +18°C° 0 mm 3 m/s 740 mmHg 74%

    Demain, 27 Avril, Samedi

    Heure Température Précipitation Vent Pression Humidité
    00:00 +17°C° 0 mm 3 m/s 740 mmHg 80%
    01:00 +15°C° 0 mm 4 m/s 740 mmHg 86%
    02:00 +15°C° 0.1 mm 4 m/s 740 mmHg 88%
    03:00 +15°C° 0.1 mm 4 m/s 740 mmHg 91%
    04:00 +14°C° 0.1 mm 5 m/s 740 mmHg 93%
    05:00 +14°C° 0.1 mm 5 m/s 741 mmHg 92%
    06:00 +14°C° 0.1 mm 5 m/s 741 mmHg 91%
    07:00 +14°C° 0.1 mm 5 m/s 742 mmHg 90%
    08:00 +13°C° 0.1 mm 6 m/s 742 mmHg 88%
    09:00 +11°C° 0.1 mm 6 m/s 743 mmHg 87%
    10:00 +11°C° 0.1 mm 6 m/s 743 mmHg 85%
    11:00 +11°C° 0 mm 6 m/s 743 mmHg 80%
    12:00 +13°C° 0 mm 6 m/s 744 mmHg 75%
    13:00 +14°C° 0 mm 6 m/s 744 mmHg 71%
    14:00 +14°C° 0 mm 5 m/s 744 mmHg 69%
    15:00 +14°C° 0 mm 5 m/s 744 mmHg 67%
    16:00 +14°C° 0 mm 4 m/s 744 mmHg 65%
    17:00 +13°C° 0 mm 3 m/s 744 mmHg 67%
    18:00 +13°C° 0 mm 3 m/s 744 mmHg 69%
    19:00 +13°C° 0 mm 2 m/s 744 mmHg 71%
    20:00 +12°C° 0 mm 2 m/s 744 mmHg 73%
    21:00 +12°C° 0 mm 2 m/s 744 mmHg 74%
    22:00 +10°C° 0 mm 2 m/s 744 mmHg 75%
    23:00 +9°C° 0 mm 2 m/s 745 mmHg 75%

    Après-demain, 28 Avril, Dimanche

    Heure Température Précipitation Vent Pression Humidité
    00:00 +9°C° 0 mm 2 m/s 745 mmHg 76%
    01:00 +10°C° 0 mm 1 m/s 745 mmHg 76%
    02:00 +9°C° 0 mm 2 m/s 745 mmHg 79%
    03:00 +9°C° 0 mm 3 m/s 745 mmHg 81%
    04:00 +9°C° 0 mm 3 m/s 745 mmHg 84%
    05:00 +8°C° 0 mm 4 m/s 746 mmHg 84%
    06:00 +9°C° 0 mm 5 m/s 746 mmHg 84%
    07:00 +9°C° 0 mm 6 m/s 746 mmHg 84%
    08:00 +10°C° 0 mm 6 m/s 747 mmHg 79%
    09:00 +10°C° 0 mm 6 m/s 747 mmHg 73%
    10:00 +11°C° 0 mm 6 m/s 747 mmHg 68%
    11:00 +13°C° 0 mm 6 m/s 747 mmHg 65%
    12:00 +13°C° 0 mm 6 m/s 747 mmHg 63%
    13:00 +14°C° 0 mm 5 m/s 747 mmHg 61%
    14:00 +14°C° 0 mm 5 m/s 747 mmHg 61%
    15:00 +14°C° 0 mm 5 m/s 747 mmHg 62%
    16:00 +13°C° 0 mm 5 m/s 747 mmHg 63%
    17:00 +13°C° 0 mm 4 m/s 747 mmHg 66%
    18:00 +12°C° 0 mm 4 m/s 747 mmHg 68%
    19:00 +11°C° 0 mm 3 m/s 747 mmHg 71%
    20:00 +11°C° 0.1 mm 3 m/s 747 mmHg 71%
    21:00 +11°C° 0.1 mm 4 m/s 748 mmHg 71%
    22:00 +10°C° 0.1 mm 4 m/s 748 mmHg 71%
    23:00 +10°C° 0.1 mm 4 m/s 748 mmHg 74%

    29 Avril, Lundi

    Heure Température Précipitation Vent Pression Humidité
    00:00 +10°C° 0.1 mm 4 m/s 747 mmHg 78%
    01:00 +8°C° 0.1 mm 4 m/s 747 mmHg 81%
    02:00 +8°C° 0.1 mm 4 m/s 747 mmHg 82%
    03:00 +8°C° 0.1 mm 4 m/s 747 mmHg 82%
    04:00 +7°C° 0.1 mm 4 m/s 747 mmHg 83%
    05:00 +7°C° 0 mm 4 m/s 747 mmHg 82%
    06:00 +7°C° 0 mm 5 m/s 747 mmHg 81%
    07:00 +7°C° 0 mm 5 m/s 747 mmHg 80%
    08:00 +8°C° 0.2 mm 6 m/s 746 mmHg 82%
    09:00 +8°C° 0.2 mm 6 m/s 746 mmHg 84%
    10:00 +8°C° 0.2 mm 6 m/s 746 mmHg 87%
    11:00 +8°C° 2.3 mm 6 m/s 746 mmHg 89%
    12:00 +8°C° 2.3 mm 6 m/s 746 mmHg 91%
    13:00 +8°C° 2.3 mm 6 m/s 745 mmHg 93%
    14:00 +8°C° 1.4 mm 5 m/s 745 mmHg 94%
    15:00 +8°C° 1.4 mm 5 m/s 745 mmHg 94%
    16:00 +8°C° 1.4 mm 4 m/s 745 mmHg 95%
    17:00 +10°C° 0.3 mm 4 m/s 745 mmHg 96%
    18:00 +10°C° 0.3 mm 3 m/s 745 mmHg 96%
    19:00 +10°C° 0.3 mm 2 m/s 745 mmHg 97%
    20:00 +10°C° 0.1 mm 2 m/s 745 mmHg 97%
    21:00 +10°C° 0.1 mm 2 m/s 745 mmHg 96%
    22:00 +10°C° 0.1 mm 2 m/s 745 mmHg 96%
    23:00 +10°C° 0 mm 2 m/s 745 mmHg 96%

    30 Avril, Mardi

    Heure Température Précipitation Vent Pression Humidité
    00:00 +9°C° 0 mm 3 m/s 745 mmHg 95%
    01:00 +9°C° 0 mm 3 m/s 745 mmHg 95%
    02:00 +8°C° 0 mm 3 m/s 745 mmHg 95%
    03:00 +8°C° 0 mm 3 m/s 745 mmHg 96%
    04:00 +7°C° 0 mm 3 m/s 745 mmHg 96%
    05:00 +8°C° 0.1 mm 3 m/s 745 mmHg 93%
    06:00 +9°C° 0.1 mm 3 m/s 745 mmHg 89%
    07:00 +10°C° 0.1 mm 4 m/s 746 mmHg 86%
    08:00 +12°C° 0.1 mm 4 m/s 746 mmHg 78%
    09:00 +13°C° 0.1 mm 4 m/s 746 mmHg 71%
    10:00 +15°C° 0.1 mm 4 m/s 746 mmHg 63%
    11:00 +15°C° 0 mm 4 m/s 745 mmHg 61%
    12:00 +15°C° 0 mm 4 m/s 745 mmHg 58%
    13:00 +15°C° 0 mm 4 m/s 745 mmHg 56%
    14:00 +15°C° 0 mm 4 m/s 745 mmHg 56%
    15:00 +15°C° 0 mm 4 m/s 745 mmHg 56%
    16:00 +16°C° 0 mm 3 m/s 744 mmHg 57%
    17:00 +13°C° 0 mm 3 m/s 745 mmHg 60%
    18:00 +12°C° 0 mm 3 m/s 745 mmHg 64%
    19:00 +11°C° 0 mm 3 m/s 745 mmHg 67%
    20:00 +11°C° 0 mm 3 m/s 745 mmHg 65%
    21:00 +11°C° 0 mm 3 m/s 745 mmHg 64%
    22:00 +11°C° 0 mm 3 m/s 745 mmHg 62%
    23:00 +10°C° 0 mm 3 m/s 745 mmHg 64%

    1 Mai, Mercredi

    Heure Température Précipitation Vent Pression Humidité
    00:00 +10°C° 0 mm 3 m/s 745 mmHg 67%
    01:00 +9°C° 0 mm 3 m/s 745 mmHg 69%
    02:00 +9°C° 0 mm 3 m/s 745 mmHg 70%
    03:00 +8°C° 0 mm 3 m/s 745 mmHg 70%
    04:00 +8°C° 0 mm 2 m/s 745 mmHg 71%
    05:00 +8°C° 0 mm 2 m/s 745 mmHg 70%
    06:00 +9°C° 0 mm 2 m/s 745 mmHg 69%
    07:00 +10°C° 0 mm 2 m/s 745 mmHg 68%
    08:00 +12°C° 0.1 mm 2 m/s 745 mmHg 61%
    09:00 +13°C° 0.1 mm 2 m/s 745 mmHg 54%
    10:00 +15°C° 0.1 mm 2 m/s 745 mmHg 47%
    11:00 +15°C° 0 mm 2 m/s 744 mmHg 47%
    12:00 +15°C° 0 mm 2 m/s 744 mmHg 47%
    13:00 +15°C° 0 mm 2 m/s 744 mmHg 48%
    14:00 +15°C° 0 mm 2 m/s 744 mmHg 48%
    15:00 +15°C° 0 mm 2 m/s 743 mmHg 48%
    16:00 +15°C° 0 mm 1 m/s 743 mmHg 48%
    17:00 +14°C° 0 mm 1 m/s 743 mmHg 53%
    18:00 +13°C° 0 mm 1 m/s 743 mmHg 58%
    19:00 +12°C° 0 mm 1 m/s 743 mmHg 63%
    20:00 +11°C° 0 mm 1 m/s 743 mmHg 63%
    21:00 +11°C° 0 mm 1 m/s 743 mmHg 63%
    22:00 +10°C° 0 mm 1 m/s 743 mmHg 63%
    23:00 +9°C° 0 mm 2 m/s 743 mmHg 65%
    Voir plus